,,PressureMeas_1m,,PRMeasQMR101_1,,RHStat155_1m_1,,SRMeasQMS101R_1m,,TAStat155_1m_1,,GenWind_1,,GenWind_1,
2019-04-05, 00:00:07,VALID,919.974,VALID,0.0,VALID,98.783,VALID,-0.009,VALID,20.37,VALID,123.0,VALID,0.0,
2019-04-05, 00:01:07,VALID,919.983,VALID,0.0,VALID,98.839,VALID,-0.019,VALID,20.397,VALID,124.0,VALID,0.0,
2019-04-05, 00:02:07,VALID,919.975,VALID,0.0,VALID,98.856,VALID,-0.027,VALID,20.39,VALID,121.0,VALID,0.0,
2019-04-05, 00:03:07,VALID,919.961,VALID,0.0,VALID,98.844,VALID,-0.003,VALID,20.388,VALID,119.0,VALID,0.0,
2019-04-05, 00:04:07,VALID,919.959,VALID,0.0,VALID,98.895,VALID,0.005,VALID,20.404,VALID,114.0,VALID,0.0,
2019-04-05, 00:05:07,VALID,919.948,VALID,0.0,VALID,98.911,VALID,0.013,VALID,20.4,VALID,120.0,VALID,0.0,
2019-04-05, 00:06:07,VALID,919.954,VALID,0.0,VALID,98.894,VALID,0.006,VALID,20.365,VALID,119.0,VALID,0.0,
2019-04-05, 00:07:07,VALID,919.942,VALID,0.0,VALID,98.906,VALID,-0.001,VALID,20.345,VALID,118.0,VALID,0.0,
2019-04-05, 00:08:07,VALID,919.941,VALID,0.0,VALID,98.9,VALID,0.005,VALID,20.313,VALID,107.0,VALID,0.0,
2019-04-05, 00:09:07,VALID,919.939,VALID,0.0,VALID,98.871,VALID,0.001,VALID,20.21,VALID,71.0,VALID,0.0,
2019-04-05, 00:10:07,VALID,919.942,VALID,0.0,VALID,98.79,VALID,0.004,VALID,20.125,VALID,67.0,VALID,0.0,
2019-04-05, 00:11:07,VALID,919.943,VALID,0.0,VALID,98.827,VALID,-0.018,VALID,20.118,VALID,67.0,VALID,0.0,
2019-04-05, 00:12:07,VALID,919.937,VALID,0.0,VALID,98.882,VALID,-0.012,VALID,20.124,VALID,67.0,VALID,0.0,
2019-04-05, 00:13:07,VALID,919.931,VALID,0.0,VALID,98.895,VALID,-0.015,VALID,20.134,VALID,67.0,VALID,0.0,
2019-04-05, 00:14:07,VALID,919.918,VALID,0.0,VALID,98.921,VALID,0.007,VALID,20.145,VALID,67.0,VALID,0.0,
2019-04-05, 00:15:07,VALID,919.905,VALID,0.0,VALID,98.938,VALID,0.025,VALID,20.161,VALID,67.0,VALID,0.0,
2019-04-05, 00:16:07,VALID,919.888,VALID,0.0,VALID,98.986,VALID,0.032,VALID,20.194,VALID,67.0,VALID,0.0,
2019-04-05, 00:17:07,VALID,919.896,VALID,0.0,VALID,98.96,VALID,0.028,VALID,20.147,VALID,67.0,VALID,0.0,
2019-04-05, 00:18:07,VALID,919.906,VALID,0.0,VALID,98.882,VALID,0.007,VALID,20.07,VALID,67.0,VALID,0.0,
2019-04-05, 00:19:07,VALID,919.911,VALID,0.0,VALID,98.882,VALID,0.011,VALID,20.041,VALID,67.0,VALID,0.0,
2019-04-05, 00:20:07,VALID,919.934,VALID,0.0,VALID,98.904,VALID,0.023,VALID,20.02,VALID,67.0,VALID,0.0,
2019-04-05, 00:21:07,VALID,919.937,VALID,0.0,VALID,98.911,VALID,0.023,VALID,19.997,VALID,67.0,VALID,0.0,
2019-04-05, 00:22:07,VALID,919.933,VALID,0.0,VALID,98.909,VALID,0.011,VALID,19.969,VALID,67.0,VALID,0.0,
2019-04-05, 00:23:07,VALID,919.914,VALID,0.0,VALID,98.86,VALID,0.023,VALID,19.895,VALID,67.0,VALID,0.0,
2019-04-05, 00:24:07,VALID,919.891,VALID,0.0,VALID,98.877,VALID,0.001,VALID,19.923,VALID,67.0,VALID,0.0,
2019-04-05, 00:25:07,VALID,919.836,VALID,0.0,VALID,98.918,VALID,0.027,VALID,19.931,VALID,69.0,VALID,0.0,
2019-04-05, 00:26:07,VALID,919.812,VALID,0.0,VALID,98.914,VALID,0.023,VALID,19.931,VALID,74.0,VALID,0.0,
2019-04-05, 00:27:07,VALID,919.773,VALID,0.0,VALID,98.941,VALID,0.007,VALID,19.964,VALID,86.0,VALID,0.0,
2019-04-05, 00:28:07,VALID,919.744,VALID,0.0,VALID,98.965,VALID,0.014,VALID,19.964,VALID,86.0,VALID,0.0,
2019-04-05, 00:29:07,VALID,919.735,VALID,0.0,VALID,98.954,VALID,0.025,VALID,19.967,VALID,86.0,VALID,0.0,
2019-04-05, 00:30:07,VALID,919.73,VALID,0.0,VALID,98.998,VALID,0.046,VALID,20.006,VALID,87.0,VALID,0.0,
2019-04-05, 00:31:07,VALID,919.727,VALID,0.0,VALID,99.078,VALID,0.047,VALID,20.082,VALID,87.0,VALID,0.0,
2019-04-05, 00:32:07,VALID,919.728,VALID,0.0,VALID,99.126,VALID,0.044,VALID,20.176,VALID,87.0,VALID,0.0,
2019-04-05, 00:33:07,VALID,919.719,VALID,0.0,VALID,99.135,VALID,0.032,VALID,20.239,VALID,87.0,VALID,0.0,
2019-04-05, 00:34:07,VALID,919.719,VALID,0.0,VALID,99.1,VALID,0.022,VALID,20.203,VALID,87.0,VALID,0.0,
2019-04-05, 00:35:07,VALID,919.696,VALID,0.0,VALID,99.021,VALID,0.019,VALID,20.092,VALID,87.0,VALID,0.0,
2019-04-05, 00:36:07,VALID,919.682,VALID,0.0,VALID,98.883,VALID,0.023,VALID,19.903,VALID,62.0,VALID,0.0,
2019-04-05, 00:37:07,VALID,919.666,VALID,0.0,VALID,98.845,VALID,0.021,VALID,19.838,VALID,49.0,VALID,0.0,
2019-04-05, 00:38:07,VALID,919.65,VALID,0.0,VALID,98.932,VALID,0.038,VALID,19.9,VALID,46.0,VALID,0.0,
2019-04-05, 00:39:07,VALID,919.64,VALID,0.0,VALID,98.945,VALID,0.042,VALID,19.885,VALID,49.0,VALID,0.0,
2019-04-05, 00:40:07,VALID,919.652,VALID,0.0,VALID,98.938,VALID,0.02,VALID,19.896,VALID,53.0,VALID,0.0,
2019-04-05, 00:41:07,VALID,919.64,VALID,0.0,VALID,98.985,VALID,0.015,VALID,19.909,VALID,42.0,VALID,0.0,
2019-04-05, 00:42:07,VALID,919.648,VALID,0.0,VALID,98.986,VALID,0.03,VALID,19.934,VALID,33.0,VALID,0.0,
2019-04-05, 00:43:07,VALID,919.635,VALID,0.0,VALID,98.992,VALID,0.022,VALID,19.914,VALID,21.0,VALID,0.0,
2019-04-05, 00:44:07,VALID,919.625,VALID,0.0,VALID,99.022,VALID,0.007,VALID,19.916,VALID,13.0,VALID,0.0,
2019-04-05, 00:45:07,VALID,919.602,VALID,0.0,VALID,99.006,VALID,0.014,VALID,19.921,VALID,13.0,VALID,0.0,
2019-04-05, 00:46:07,VALID,919.601,VALID,0.0,VALID,99.037,VALID,0.019,VALID,19.949,VALID,12.0,VALID,0.0,
2019-04-05, 00:47:07,VALID,919.591,VALID,0.0,VALID,99.049,VALID,0.027,VALID,19.967,VALID,4.0,VALID,0.0,
2019-04-05, 00:48:07,VALID,919.595,VALID,0.0,VALID,99.064,VALID,0.019,VALID,19.972,VALID,1.0,VALID,0.0,
2019-04-05, 00:49:07,VALID,919.596,VALID,0.0,VALID,99.065,VALID,0.029,VALID,19.983,VALID,1.0,VALID,0.0,
2019-04-05, 00:50:07,VALID,919.588,VALID,0.0,VALID,99.088,VALID,0.04,VALID,19.996,VALID,1.0,VALID,0.0,
2019-04-05, 00:51:07,VALID,919.602,VALID,0.0,VALID,99.095,VALID,0.054,VALID,19.996,VALID,1.0,VALID,0.0,
2019-04-05, 00:52:07,VALID,919.586,VALID,0.0,VALID,99.1,VALID,0.037,VALID,19.991,VALID,1.0,VALID,0.0,
2019-04-05, 00:53:07,VALID,919.573,VALID,0.0,VALID,99.071,VALID,0.057,VALID,19.991,VALID,1.0,VALID,0.0,
2019-04-05, 00:54:07,VALID,919.559,VALID,0.0,VALID,99.104,VALID,0.04,VALID,20.006,VALID,1.0,VALID,0.0,
2019-04-05, 00:55:07,VALID,919.525,VALID,0.0,VALID,99.076,VALID,0.05,VALID,19.965,VALID,12.0,VALID,0.0,
2019-04-05, 00:56:07,VALID,919.533,VALID,0.0,VALID,99.078,VALID,0.048,VALID,19.947,VALID,27.0,VALID,0.0,
2019-04-05, 00:57:07,VALID,919.521,VALID,0.0,VALID,99.072,VALID,0.033,VALID,19.929,VALID,27.0,VALID,0.0,
2019-04-05, 00:58:07,VALID,919.496,VALID,0.0,VALID,99.089,VALID,0.047,VALID,19.944,VALID,27.0,VALID,0.0,
2019-04-05, 00:59:07,VALID,919.481,VALID,0.0,VALID,99.109,VALID,0.028,VALID,19.966,VALID,27.0,VALID,0.0,
2019-04-05, 01:00:07,VALID,919.441,VALID,0.0,VALID,99.096,VALID,-0.011,VALID,19.969,VALID,36.0,VALID,0.0,
2019-04-05, 01:01:07,VALID,919.411,VALID,0.0,VALID,99.076,VALID,-0.019,VALID,19.947,VALID,58.0,VALID,0.0,
2019-04-05, 01:02:07,VALID,919.364,VALID,0.0,VALID,99.122,VALID,-0.024,VALID,19.949,VALID,63.0,VALID,0.0,
2019-04-05, 01:03:07,VALID,919.362,VALID,0.0,VALID,99.115,VALID,-0.007,VALID,19.944,VALID,72.0,VALID,0.0,
2019-04-05, 01:04:07,VALID,919.325,VALID,0.0,VALID,99.113,VALID,0.006,VALID,19.928,VALID,83.0,VALID,0.0,
2019-04-05, 01:05:07,VALID,919.311,VALID,0.0,VALID,99.106,VALID,-0.007,VALID,19.914,VALID,109.0,VALID,0.0,
2019-04-05, 01:06:07,VALID,919.289,VALID,0.0,VALID,99.131,VALID,-0.01,VALID,19.926,VALID,128.0,VALID,0.0,
2019-04-05, 01:07:07,VALID,919.299,VALID,0.0,VALID,99.14,VALID,-0.004,VALID,19.933,VALID,127.0,VALID,0.0,
2019-04-05, 01:08:07,VALID,919.267,VALID,0.0,VALID,99.147,VALID,-0.012,VALID,19.921,VALID,119.0,VALID,0.0,
2019-04-05, 01:09:07,VALID,919.259,VALID,0.0,VALID,99.137,VALID,-0.008,VALID,19.898,VALID,104.0,VALID,0.0,
2019-04-05, 01:10:07,VALID,919.233,VALID,0.0,VALID,99.146,VALID,-0.022,VALID,19.886,VALID,97.0,VALID,0.0,
2019-04-05, 01:11:07,VALID,919.22,VALID,0.0,VALID,99.153,VALID,-0.023,VALID,19.88,VALID,97.0,VALID,0.0,
2019-04-05, 01:12:07,VALID,919.214,VALID,0.0,VALID,99.146,VALID,-0.017,VALID,19.862,VALID,93.0,VALID,0.0,
2019-04-05, 01:13:07,VALID,919.224,VALID,0.0,VALID,99.151,VALID,-0.009,VALID,19.864,VALID,92.0,VALID,0.0,
2019-04-05, 01:14:07,VALID,919.241,VALID,0.0,VALID,99.176,VALID,-0.002,VALID,19.875,VALID,92.0,VALID,0.0,
2019-04-05, 01:15:07,VALID,919.266,VALID,0.0,VALID,99.193,VALID,0.028,VALID,19.9,VALID,92.0,VALID,0.0,
2019-04-05, 01:16:07,VALID,919.247,VALID,0.0,VALID,99.237,VALID,0.021,VALID,19.941,VALID,92.0,VALID,0.0,
2019-04-05, 01:17:07,VALID,919.232,VALID,0.0,VALID,99.242,VALID,0.029,VALID,19.972,VALID,91.0,VALID,0.0,
2019-04-05, 01:18:07,VALID,919.206,VALID,0.0,VALID,99.266,VALID,0.024,VALID,20.004,VALID,89.0,VALID,0.0,
2019-04-05, 01:19:07,VALID,919.162,VALID,0.0,VALID,99.266,VALID,0.025,VALID,20.017,VALID,68.0,VALID,0.0,
2019-04-05, 01:20:07,VALID,919.177,VALID,0.0,VALID,99.289,VALID,0.022,VALID,20.061,VALID,67.0,VALID,0.0,
2019-04-05, 01:21:07,VALID,919.142,VALID,0.0,VALID,99.277,VALID,0.01,VALID,20.069,VALID,67.0,VALID,0.0,
2019-04-05, 01:22:07,VALID,919.117,VALID,0.0,VALID,99.294,VALID,0.03,VALID,20.083,VALID,67.0,VALID,0.0,
2019-04-05, 01:23:07,VALID,919.097,VALID,0.0,VALID,99.283,VALID,0.026,VALID,20.102,VALID,67.0,VALID,0.0,
2019-04-05, 01:24:07,VALID,919.084,VALID,0.0,VALID,99.31,VALID,0.046,VALID,20.151,VALID,67.0,VALID,0.0,
2019-04-05, 01:25:07,VALID,919.086,VALID,0.0,VALID,99.29,VALID,0.03,VALID,20.155,VALID,67.0,VALID,0.0,
2019-04-05, 01:26:07,VALID,919.051,VALID,0.0,VALID,99.279,VALID,0.035,VALID,20.132,VALID,111.0,VALID,0.0,
2019-04-05, 01:27:07,VALID,919.067,VALID,0.0,VALID,99.271,VALID,0.049,VALID,20.111,VALID,146.0,VALID,0.0,
2019-04-05, 01:28:07,VALID,919.037,VALID,0.0,VALID,99.278,VALID,0.045,VALID,20.102,INVALID,360.0,VALID,0.0,
2019-04-05, 01:29:07,VALID,919.033,VALID,0.0,VALID,99.273,VALID,0.023,VALID,20.088,INVALID,360.0,VALID,0.0,
2019-04-05, 01:30:07,VALID,919.004,VALID,0.0,VALID,99.277,VALID,-0.004,VALID,20.088,INVALID,360.0,VALID,0.0,
2019-04-05, 01:31:07,VALID,918.998,VALID,0.0,VALID,99.296,VALID,0.019,VALID,20.094,INVALID,360.0,VALID,0.0,
2019-04-05, 01:32:07,VALID,918.968,VALID,0.0,VALID,99.3,VALID,0.003,VALID,20.099,INVALID,360.0,VALID,0.0,
2019-04-05, 01:33:07,VALID,918.934,VALID,0.0,VALID,99.299,VALID,0.005,VALID,20.107,VALID,128.0,VALID,0.0,
2019-04-05, 01:34:07,VALID,918.907,VALID,0.0,VALID,99.319,VALID,0.01,VALID,20.121,VALID,113.0,VALID,0.0,
2019-04-05, 01:35:07,VALID,918.89,VALID,0.0,VALID,99.332,VALID,0.004,VALID,20.143,VALID,130.0,VALID,0.0,
2019-04-05, 01:36:07,VALID,918.855,VALID,0.0,VALID,99.343,VALID,-0.012,VALID,20.172,VALID,130.0,VALID,0.0,
2019-04-05, 01:37:07,VALID,918.845,VALID,0.0,VALID,99.342,VALID,0.002,VALID,20.178,VALID,127.0,VALID,0.0,
2019-04-05, 01:38:07,VALID,918.83,VALID,0.0,VALID,99.333,VALID,0.023,VALID,20.179,VALID,110.0,VALID,0.0,
2019-04-05, 01:39:07,VALID,918.814,VALID,0.0,VALID,99.354,VALID,0.003,VALID,20.194,INVALID,360.0,VALID,0.0,
2019-04-05, 01:40:07,VALID,918.813,VALID,0.0,VALID,99.337,VALID,0.004,VALID,20.203,VALID,122.0,VALID,0.0,
2019-04-05, 01:41:07,VALID,918.834,VALID,0.0,VALID,99.321,VALID,0.015,VALID,20.159,VALID,122.0,VALID,0.0,
2019-04-05, 01:42:07,VALID,918.821,VALID,0.0,VALID,99.326,VALID,0.002,VALID,20.127,VALID,121.0,VALID,0.0,
2019-04-05, 01:43:07,VALID,918.822,VALID,0.0,VALID,99.321,VALID,0.012,VALID,20.118,VALID,114.0,VALID,0.0,
2019-04-05, 01:44:07,VALID,918.821,VALID,0.0,VALID,99.327,VALID,0.016,VALID,20.115,VALID,113.0,VALID,0.0,
2019-04-05, 01:45:07,VALID,918.804,VALID,0.0,VALID,99.356,VALID,0.004,VALID,20.115,VALID,115.0,VALID,0.0,
2019-04-05, 01:46:07,VALID,918.779,VALID,0.0,VALID,99.342,VALID,0.021,VALID,20.122,VALID,93.0,VALID,0.0,
2019-04-05, 01:47:07,VALID,918.756,VALID,0.0,VALID,99.357,VALID,0.01,VALID,20.14,VALID,95.0,VALID,0.0,
2019-04-05, 01:48:07,VALID,918.754,VALID,0.0,VALID,99.37,VALID,0.021,VALID,20.142,VALID,91.0,VALID,0.0,
2019-04-05, 01:49:07,VALID,918.743,VALID,0.0,VALID,99.354,VALID,0.02,VALID,20.115,VALID,87.0,VALID,0.0,
2019-04-05, 01:50:07,VALID,918.718,VALID,0.0,VALID,99.331,VALID,-0.0,VALID,20.09,VALID,81.0,VALID,0.0,
2019-04-05, 01:51:07,VALID,918.713,VALID,0.0,VALID,99.333,VALID,0.013,VALID,20.059,VALID,75.0,VALID,0.0,
2019-04-05, 01:52:07,VALID,918.703,VALID,0.0,VALID,99.338,VALID,0.01,VALID,20.058,VALID,84.0,VALID,0.0,
2019-04-05, 01:53:07,VALID,918.68,VALID,0.0,VALID,99.365,VALID,-0.001,VALID,20.049,VALID,89.0,VALID,0.0,
2019-04-05, 01:54:07,VALID,918.675,VALID,0.0,VALID,99.366,VALID,0.008,VALID,20.049,VALID,96.0,VALID,0.0,
2019-04-05, 01:55:07,VALID,918.666,VALID,0.0,VALID,99.364,VALID,-0.009,VALID,20.042,VALID,101.0,VALID,0.0,
2019-04-05, 01:56:07,VALID,918.658,VALID,0.0,VALID,99.362,VALID,0.015,VALID,20.046,VALID,101.0,VALID,0.0,
2019-04-05, 01:57:07,VALID,918.639,VALID,0.0,VALID,99.352,VALID,-0.006,VALID,20.028,VALID,97.0,VALID,0.0,
2019-04-05, 01:58:07,VALID,918.635,VALID,0.0,VALID,99.378,VALID,0.006,VALID,20.032,VALID,82.0,VALID,0.0,
2019-04-05, 01:59:07,VALID,918.617,VALID,0.0,VALID,99.376,VALID,0.01,VALID,19.99,VALID,85.0,VALID,0.0,
2019-04-05, 02:00:06,VALID,918.601,VALID,0.0,VALID,99.36,VALID,0.025,VALID,19.965,VALID,92.0,VALID,0.0,
2019-04-05, 02:01:06,VALID,918.586,VALID,0.0,VALID,99.352,VALID,0.022,VALID,19.946,VALID,89.0,VALID,0.0,
2019-04-05, 02:02:06,VALID,918.58,VALID,0.0,VALID,99.358,VALID,0.031,VALID,19.955,VALID,89.0,VALID,0.0,
2019-04-05, 02:03:06,VALID,918.576,VALID,0.0,VALID,99.381,VALID,0.02,VALID,19.949,VALID,85.0,VALID,0.0,
2019-04-05, 02:04:06,VALID,918.581,VALID,0.0,VALID,99.373,VALID,0.041,VALID,19.936,VALID,79.0,VALID,0.0,
2019-04-05, 02:05:06,VALID,918.613,VALID,0.0,VALID,99.374,VALID,0.008,VALID,19.931,VALID,84.0,VALID,0.0,
2019-04-05, 02:06:06,VALID,918.626,VALID,0.0,VALID,99.379,VALID,0.014,VALID,19.933,VALID,83.0,VALID,0.0,
2019-04-05, 02:07:06,VALID,918.634,VALID,0.0,VALID,99.384,VALID,0.017,VALID,19.948,VALID,88.0,VALID,0.0,
2019-04-05, 02:08:06,VALID,918.648,VALID,0.0,VALID,99.388,VALID,0.023,VALID,19.951,VALID,93.0,VALID,0.0,
2019-04-05, 02:09:06,VALID,918.649,VALID,0.0,VALID,99.387,VALID,0.017,VALID,19.947,VALID,105.0,VALID,0.0,
2019-04-05, 02:10:06,VALID,918.627,VALID,0.0,VALID,99.394,VALID,0.032,VALID,19.959,VALID,100.0,VALID,0.0,
2019-04-05, 02:11:06,VALID,918.634,VALID,0.0,VALID,99.403,VALID,0.019,VALID,19.96,VALID,102.0,VALID,0.0,
2019-04-05, 02:12:06,VALID,918.611,VALID,0.0,VALID,99.401,VALID,0.0,VALID,19.953,VALID,99.0,VALID,0.0,
2019-04-05, 02:13:06,VALID,918.597,VALID,0.0,VALID,99.395,VALID,0.022,VALID,19.936,VALID,87.0,VALID,0.0,
2019-04-05, 02:14:06,VALID,918.593,VALID,0.0,VALID,99.406,VALID,0.035,VALID,19.942,VALID,89.0,VALID,0.0,
2019-04-05, 02:15:06,VALID,918.576,VALID,0.0,VALID,99.396,VALID,0.055,VALID,19.945,VALID,96.0,VALID,0.0,
2019-04-05, 02:16:06,VALID,918.555,VALID,0.0,VALID,99.408,VALID,0.054,VALID,19.964,VALID,87.0,VALID,0.0,
2019-04-05, 02:17:06,VALID,918.532,VALID,0.0,VALID,99.418,VALID,0.039,VALID,19.954,VALID,89.0,VALID,0.0,
2019-04-05, 02:18:06,VALID,918.497,VALID,0.0,VALID,99.41,VALID,0.046,VALID,19.961,VALID,91.0,VALID,0.0,
2019-04-05, 02:19:06,VALID,918.477,VALID,0.0,VALID,99.414,VALID,0.026,VALID,19.968,VALID,96.0,VALID,0.0,
2019-04-05, 02:20:06,VALID,918.459,VALID,0.0,VALID,99.43,VALID,0.048,VALID,19.982,VALID,95.0,VALID,0.0,
2019-04-05, 02:21:06,VALID,918.443,VALID,0.0,VALID,99.429,VALID,0.018,VALID,19.979,VALID,89.0,VALID,0.0,
2019-04-05, 02:22:06,VALID,918.45,VALID,0.0,VALID,99.418,VALID,0.019,VALID,19.977,VALID,91.0,VALID,0.0,
2019-04-05, 02:23:06,VALID,918.448,VALID,0.0,VALID,99.419,VALID,0.022,VALID,19.97,VALID,100.0,VALID,0.0,
2019-04-05, 02:24:06,VALID,918.433,VALID,0.0,VALID,99.412,VALID,0.01,VALID,19.965,VALID,97.0,VALID,0.0,
2019-04-05, 02:25:06,VALID,918.432,VALID,0.0,VALID,99.424,VALID,0.018,VALID,19.962,VALID,107.0,VALID,0.0,
2019-04-05, 02:26:06,VALID,918.438,VALID,0.0,VALID,99.419,VALID,0.023,VALID,19.956,VALID,105.0,VALID,0.0,
2019-04-05, 02:27:06,VALID,918.394,VALID,0.0,VALID,99.43,VALID,0.03,VALID,19.945,VALID,111.0,VALID,0.0,
2019-04-05, 02:28:06,VALID,918.382,VALID,0.0,VALID,99.418,VALID,0.04,VALID,19.942,VALID,112.0,VALID,0.0,
2019-04-05, 02:29:06,VALID,918.344,VALID,0.0,VALID,99.43,VALID,0.02,VALID,19.945,VALID,108.0,VALID,0.0,
2019-04-05, 02:30:06,VALID,918.319,VALID,0.0,VALID,99.438,VALID,0.035,VALID,19.948,VALID,102.0,VALID,0.0,
2019-04-05, 02:31:06,VALID,918.296,VALID,0.0,VALID,99.434,VALID,0.025,VALID,19.946,VALID,109.0,VALID,0.0,
2019-04-05, 02:32:06,VALID,918.276,VALID,0.0,VALID,99.446,VALID,0.01,VALID,19.936,VALID,111.0,VALID,0.0,
2019-04-05, 02:33:06,VALID,918.253,VALID,0.0,VALID,99.434,VALID,0.015,VALID,19.917,VALID,113.0,VALID,0.0,
2019-04-05, 02:34:06,VALID,918.251,VALID,0.0,VALID,99.429,VALID,0.014,VALID,19.905,VALID,118.0,VALID,0.0,
2019-04-05, 02:35:06,VALID,918.209,VALID,0.0,VALID,99.429,VALID,0.033,VALID,19.905,VALID,118.0,VALID,0.0,
2019-04-05, 02:36:06,VALID,918.213,VALID,0.0,VALID,99.445,VALID,0.037,VALID,19.914,VALID,122.0,VALID,0.0,
2019-04-05, 02:37:06,VALID,918.198,VALID,0.0,VALID,99.424,VALID,0.013,VALID,19.91,VALID,119.0,VALID,0.0,
2019-04-05, 02:38:06,VALID,918.19,VALID,0.0,VALID,99.424,VALID,0.038,VALID,19.907,VALID,122.0,VALID,0.0,
2019-04-05, 02:39:06,VALID,918.185,VALID,0.0,VALID,99.44,VALID,0.02,VALID,19.901,VALID,121.0,VALID,0.0,
2019-04-05, 02:40:06,VALID,918.171,VALID,0.0,VALID,99.446,VALID,0.038,VALID,19.913,VALID,129.0,VALID,0.0,
2019-04-05, 02:41:06,VALID,918.196,VALID,0.0,VALID,99.459,VALID,0.033,VALID,19.936,VALID,123.0,VALID,0.0,
2019-04-05, 02:42:06,VALID,918.205,VALID,0.0,VALID,99.446,VALID,0.021,VALID,19.932,VALID,128.0,VALID,0.0,
2019-04-05, 02:43:06,VALID,918.219,VALID,0.0,VALID,99.447,VALID,0.013,VALID,19.922,VALID,140.0,VALID,0.0,
2019-04-05, 02:44:06,VALID,918.22,VALID,0.0,VALID,99.429,VALID,0.022,VALID,19.911,VALID,144.0,VALID,0.0,
2019-04-05, 02:45:06,VALID,918.235,VALID,0.0,VALID,99.423,VALID,0.041,VALID,19.891,VALID,126.0,VALID,0.0,
2019-04-05, 02:46:06,VALID,918.216,VALID,0.0,VALID,99.443,VALID,0.045,VALID,19.88,VALID,129.0,VALID,0.0,
2019-04-05, 02:47:06,VALID,918.198,VALID,0.0,VALID,99.43,VALID,0.05,VALID,19.872,VALID,129.0,VALID,0.0,
2019-04-05, 02:48:06,VALID,918.176,VALID,0.0,VALID,99.445,VALID,0.042,VALID,19.868,VALID,124.0,VALID,0.0,
2019-04-05, 02:49:06,VALID,918.163,VALID,0.0,VALID,99.451,VALID,0.022,VALID,19.858,VALID,126.0,VALID,0.0,
2019-04-05, 02:50:06,VALID,918.133,VALID,0.0,VALID,99.423,VALID,0.04,VALID,19.854,VALID,121.0,VALID,0.0,
2019-04-05, 02:51:06,VALID,918.128,VALID,0.0,VALID,99.446,VALID,0.062,VALID,19.844,VALID,129.0,VALID,0.0,
2019-04-05, 02:52:06,VALID,918.135,VALID,0.0,VALID,99.448,VALID,0.062,VALID,19.838,VALID,129.0,VALID,0.0,
2019-04-05, 02:53:06,VALID,918.139,VALID,0.0,VALID,99.449,VALID,0.053,VALID,19.826,VALID,123.0,VALID,0.0,
2019-04-05, 02:54:06,VALID,918.135,VALID,0.0,VALID,99.446,VALID,0.052,VALID,19.821,VALID,124.0,VALID,0.0,
2019-04-05, 02:55:06,VALID,918.144,VALID,0.0,VALID,99.445,VALID,0.04,VALID,19.832,VALID,120.0,VALID,0.0,
2019-04-05, 02:56:06,VALID,918.152,VALID,0.0,VALID,99.451,VALID,0.041,VALID,19.805,VALID,122.0,VALID,0.0,
2019-04-05, 02:57:06,VALID,918.157,VALID,0.0,VALID,99.434,VALID,0.034,VALID,19.781,VALID,119.0,VALID,0.0,
2019-04-05, 02:58:06,VALID,918.162,VALID,0.0,VALID,99.447,VALID,0.039,VALID,19.779,VALID,128.0,VALID,0.0,
2019-04-05, 02:59:06,VALID,918.161,VALID,0.0,VALID,99.462,VALID,0.026,VALID,19.809,VALID,122.0,VALID,0.0,
2019-04-05, 03:00:06,VALID,918.148,VALID,0.0,VALID,99.472,VALID,0.026,VALID,19.82,VALID,113.0,VALID,0.0,
2019-04-05, 03:01:06,VALID,918.126,VALID,0.0,VALID,99.446,VALID,0.026,VALID,19.805,VALID,126.0,VALID,0.0,
2019-04-05, 03:02:06,VALID,918.117,VALID,0.0,VALID,99.45,VALID,0.042,VALID,19.794,VALID,126.0,VALID,0.0,
2019-04-05, 03:03:06,VALID,918.093,VALID,0.0,VALID,99.453,VALID,0.02,VALID,19.817,VALID,132.0,VALID,0.0,
2019-04-05, 03:04:06,VALID,918.096,VALID,0.0,VALID,99.448,VALID,0.032,VALID,19.814,VALID,121.0,VALID,0.0,
2019-04-05, 03:05:06,VALID,918.074,VALID,0.0,VALID,99.439,VALID,0.029,VALID,19.802,VALID,120.0,VALID,0.0,
2019-04-05, 03:06:06,VALID,918.095,VALID,0.0,VALID,99.466,VALID,0.018,VALID,19.787,VALID,124.0,VALID,0.0,
2019-04-05, 03:07:06,VALID,918.092,VALID,0.0,VALID,99.431,VALID,0.02,VALID,19.773,VALID,124.0,VALID,0.0,
2019-04-05, 03:08:06,VALID,918.082,VALID,0.0,VALID,99.455,VALID,0.036,VALID,19.78,VALID,126.0,VALID,0.0,
2019-04-05, 03:09:06,VALID,918.066,VALID,0.0,VALID,99.444,VALID,0.049,VALID,19.779,VALID,127.0,VALID,0.0,
2019-04-05, 03:10:06,VALID,918.076,VALID,0.0,VALID,99.447,VALID,0.027,VALID,19.772,VALID,119.0,VALID,0.0,
2019-04-05, 03:11:06,VALID,918.077,VALID,0.0,VALID,99.428,VALID,0.019,VALID,19.756,VALID,117.0,VALID,0.0,
2019-04-05, 03:12:06,VALID,918.095,VALID,0.0,VALID,99.433,VALID,0.034,VALID,19.749,VALID,120.0,VALID,0.0,
2019-04-05, 03:13:06,VALID,918.121,VALID,0.0,VALID,99.433,VALID,0.036,VALID,19.768,VALID,122.0,VALID,0.0,
2019-04-05, 03:14:06,VALID,918.1,VALID,0.0,VALID,99.456,VALID,0.02,VALID,19.766,VALID,122.0,VALID,0.0,
2019-04-05, 03:15:06,VALID,918.123,VALID,0.0,VALID,99.443,VALID,0.01,VALID,19.776,VALID,118.0,VALID,0.0,
2019-04-05, 03:16:06,VALID,918.119,VALID,0.0,VALID,99.451,VALID,0.018,VALID,19.763,VALID,114.0,VALID,0.0,
2019-04-05, 03:17:06,VALID,918.111,VALID,0.0,VALID,99.441,VALID,0.017,VALID,19.757,VALID,118.0,VALID,0.0,
2019-04-05, 03:18:06,VALID,918.129,VALID,0.0,VALID,99.455,VALID,0.023,VALID,19.745,VALID,123.0,VALID,0.0,
2019-04-05, 03:19:06,VALID,918.123,VALID,0.0,VALID,99.443,VALID,0.041,VALID,19.751,VALID,109.0,VALID,0.0,
2019-04-05, 03:20:06,VALID,918.114,VALID,0.0,VALID,99.443,VALID,0.036,VALID,19.744,VALID,122.0,VALID,0.0,
2019-04-05, 03:21:06,VALID,918.095,VALID,0.0,VALID,99.443,VALID,0.023,VALID,19.741,VALID,125.0,VALID,0.0,
2019-04-05, 03:22:06,VALID,918.089,VALID,0.0,VALID,99.448,VALID,0.022,VALID,19.75,VALID,116.0,VALID,0.0,
2019-04-05, 03:23:06,VALID,918.083,VALID,0.0,VALID,99.44,VALID,0.025,VALID,19.732,VALID,124.0,VALID,0.0,
2019-04-05, 03:24:06,VALID,918.077,VALID,0.0,VALID,99.441,VALID,0.032,VALID,19.724,VALID,125.0,VALID,0.0,
2019-04-05, 03:25:06,VALID,918.081,VALID,0.0,VALID,99.44,VALID,0.036,VALID,19.722,VALID,125.0,VALID,0.0,
2019-04-05, 03:26:06,VALID,918.057,VALID,0.0,VALID,99.44,VALID,0.038,VALID,19.717,VALID,128.0,VALID,0.0,
2019-04-05, 03:27:06,VALID,918.056,VALID,0.0,VALID,99.471,VALID,0.034,VALID,19.734,VALID,128.0,VALID,0.0,
2019-04-05, 03:28:06,VALID,918.044,VALID,0.0,VALID,99.436,VALID,0.04,VALID,19.725,VALID,124.0,VALID,0.0,
2019-04-05, 03:29:06,VALID,918.048,VALID,0.0,VALID,99.442,VALID,0.021,VALID,19.722,VALID,122.0,VALID,0.0,
2019-04-05, 03:30:06,VALID,918.052,VALID,0.0,VALID,99.455,VALID,0.024,VALID,19.699,VALID,119.0,VALID,0.0,
2019-04-05, 03:31:06,VALID,918.046,VALID,0.0,VALID,99.439,VALID,0.028,VALID,19.687,VALID,122.0,VALID,0.0,
2019-04-05, 03:32:06,VALID,918.052,VALID,0.0,VALID,99.439,VALID,0.043,VALID,19.685,VALID,122.0,VALID,0.0,
2019-04-05, 03:33:06,VALID,918.034,VALID,0.0,VALID,99.452,VALID,0.015,VALID,19.675,VALID,124.0,VALID,0.0,
2019-04-05, 03:34:06,VALID,918.039,VALID,0.0,VALID,99.454,VALID,0.028,VALID,19.68,VALID,123.0,VALID,0.0,
2019-04-05, 03:35:06,VALID,918.044,VALID,0.0,VALID,99.442,VALID,0.021,VALID,19.673,VALID,126.0,VALID,0.0,
2019-04-05, 03:36:06,VALID,918.005,VALID,0.0,VALID,99.437,VALID,0.04,VALID,19.683,VALID,124.0,VALID,0.0,
2019-04-05, 03:37:06,VALID,917.991,VALID,0.0,VALID,99.474,VALID,0.018,VALID,19.695,VALID,125.0,VALID,0.0,
2019-04-05, 03:38:06,VALID,917.988,VALID,0.0,VALID,99.457,VALID,0.021,VALID,19.69,VALID,124.0,VALID,0.0,
2019-04-05, 03:39:06,VALID,917.956,VALID,0.0,VALID,99.446,VALID,0.021,VALID,19.686,VALID,124.0,VALID,0.0,
2019-04-05, 03:40:06,VALID,917.966,VALID,0.0,VALID,99.442,VALID,0.022,VALID,19.688,VALID,127.0,VALID,0.0,
2019-04-05, 03:41:06,VALID,917.97,VALID,0.0,VALID,99.459,VALID,0.002,VALID,19.679,VALID,128.0,VALID,0.0,
2019-04-05, 03:42:06,VALID,917.963,VALID,0.0,VALID,99.46,VALID,0.007,VALID,19.678,VALID,123.0,VALID,0.0,
2019-04-05, 03:43:06,VALID,917.978,VALID,0.0,VALID,99.465,VALID,0.023,VALID,19.676,VALID,121.0,VALID,0.0,